Weather History for KHSE - September, 2012

Change the Weather History Date:

Monday, September 3, 2012

  Actual Average Record
Temperature  
Mean Temperature 81 °F 77 °F  
Max Temperature 86 °F 82 °F 90 °F (1959)
Min Temperature 76 °F 72 °F 62 °F (1909)
Degree Days  
Heating Degree Days 0 0  
Month to date heating degree days 0 0  
Since 1 July heating degree days 0 0  
Cooling Degree Days 16 12  
Month to date cooling degree days 52 36  
Year to date cooling degree days 1702 1342  
Growing Degree Days 30 (Base 50)    
Moisture  
Dew Point 75 °F    
Average Humidity 82    
Maximum Humidity 94    
Minimum Humidity 69    
Precipitation  
Precipitation 0.04 in 0.21 in 3.03 in (1998)
Month to date precipitation 0.04 0.68  
Year to date precipitation 36.29 37.87  
Snow  
Snow 0.00 in - - ()
Month to date snowfall 0.0  
Since 1 July snowfall 0.0  
Snow Depth 0.00 in    
Sea Level Pressure  
Sea Level Pressure 30.04 in    
Wind  
Wind Speed 5 mph (ESE)    
Max Wind Speed 8 mph    
Max Gust Speed 16 mph    
Visibility 10 miles    
Events      
T = Trace of Precipitation, MM = Missing Value Source: NWS Daily Summary

Daily Weather History Graph

Daily Weather History Graph

Search for Another Location

Airport or City:

Trip Planner

Search our weather history database for the weather conditions in past years. The results will help you decide how hot, cold, wet, or windy it might be!

Date:

Astronomy

Sep. 03, 2012 Rise Set
Actual Time 6:36 AM EDT 7:25 PM EDT
Civil Twilight 6:10 AM EDT 7:51 PM EDT
Nautical Twilight 5:40 AM EDT 8:22 PM EDT
Astronomical Twilight 5:09 AM EDT 8:53 PM EDT
Moon 8:54 PM EDT (9/3) 9:33 AM EDT (9/3)
Length of Visible Light 13h 40m
Length of Day
12h 49m
Waning Gibbous, 90% of the Moon is Illuminated
Sep 3
Waning Gibbous
Sep 8
Last Quarter
Sep 15
New
Sep 22
First Quarter
Sep 29
Full

Hourly Weather History & Observations

Time (EDT) Temp. Heat Index Dew Point Humidity Pressure Visibility Wind Dir Wind Speed Gust Speed Precip Events Conditions
12:51 AM 75.9 °F - 73.0 °F 91% 30.02 in 6.0 mi Calm Calm - N/A   Clear
1:51 AM 77.0 °F - 73.9 °F 90% 30.01 in 10.0 mi NE 3.5 mph - N/A   Clear
2:51 AM 79.0 °F - 75.9 °F 90% 30.01 in 10.0 mi NE 3.5 mph - N/A   Clear
3:51 AM 79.0 °F - 75.9 °F 90% 30.00 in 10.0 mi ENE 3.5 mph - N/A   Clear
4:51 AM 79.0 °F - 75.9 °F 90% 30.01 in 10.0 mi NE 4.6 mph - N/A   Scattered Clouds
5:51 AM 78.1 °F - 75.9 °F 93% 30.01 in 9.0 mi ENE 3.5 mph - N/A   Clear
6:51 AM 79.0 °F - 75.9 °F 90% 30.02 in 7.0 mi ENE 3.5 mph - N/A   Clear
7:51 AM 81.0 °F 88.6 °F 78.1 °F 91% 30.04 in 9.0 mi East 3.5 mph - N/A   Clear
8:51 AM 82.9 °F 90.2 °F 75.0 °F 77% 30.05 in 10.0 mi ESE 8.1 mph - N/A   Clear
9:51 AM 84.9 °F 96.6 °F 78.1 °F 80% 30.06 in 10.0 mi SSE 4.6 mph - N/A   Clear
10:51 AM 84.0 °F 92.6 °F 75.9 °F 76% 30.07 in 10.0 mi South 4.6 mph - N/A   Clear
11:51 AM 86.0 °F 95.1 °F 75.0 °F 70% 30.08 in 10.0 mi WSW 8.1 mph - N/A   Clear
12:51 PM 81.0 °F 84.9 °F 71.1 °F 72% 30.08 in 10.0 mi NW 8.1 mph 16.1 mph N/A   Clear
1:51 PM 81.0 °F 85.2 °F 72.0 °F 74% 30.08 in 10.0 mi Variable 3.5 mph - N/A   Clear
2:51 PM 82.0 °F 86.7 °F 72.0 °F 71% 30.06 in 10.0 mi North 3.5 mph - 0.00 in   Partly Cloudy
3:51 PM 82.9 °F 88.0 °F 72.0 °F 69% 30.02 in 10.0 mi SSE 5.8 mph - N/A   Clear
4:51 PM 84.9 °F 91.4 °F 73.0 °F 67% 30.01 in 10.0 mi SE 4.6 mph - N/A   Clear
5:51 PM 82.9 °F 88.8 °F 73.0 °F 72% 30.02 in 10.0 mi SE 5.8 mph - N/A   Clear
6:51 PM 81.0 °F 85.8 °F 73.0 °F 77% 30.03 in 10.0 mi ESE 5.8 mph - N/A   Clear
7:51 PM 80.1 °F 84.5 °F 73.9 °F 81% 30.04 in 10.0 mi SE 5.8 mph - N/A   Clear
8:51 PM 80.1 °F 85.1 °F 75.0 °F 85% 30.05 in 10.0 mi SSE 4.6 mph - N/A   Clear
9:51 PM 80.1 °F 85.4 °F 75.9 °F 87% 30.06 in 10.0 mi SSW 4.6 mph - N/A   Partly Cloudy
10:51 PM 80.1 °F 85.4 °F 75.9 °F 87% 30.06 in 10.0 mi SSW 5.8 mph - N/A   Clear
11:51 PM 80.1 °F 85.4 °F 75.9 °F 87% 30.05 in 10.0 mi SSW 4.6 mph - N/A   Partly Cloudy